Weather History for Dubuque, IA

Change the Weather History Date:

Monday, August 19, 2013

  Actual Average Record
Temperature  
Mean Temperature 69 °F 70 °F  
Max Temperature 81 °F 80 °F 99 °F (1983)
Min Temperature 57 °F 60 °F 47 °F (1985)
Degree Days  
Heating Degree Days 0 1  
Month to date heating degree days 10 4  
Since 1 June heating degree days 71 52  
Since 1 July heating degree days 32 12  
Cooling Degree Days 4 6  
Month to date cooling degree days 55 119  
Year to date cooling degree days 407 519  
Since 1 June cooling degree days 362 482  
Growing Degree Days 19 (Base 50)    
Moisture  
Dew Point 60 °F    
Average Humidity 77    
Maximum Humidity 100    
Minimum Humidity 54    
Precipitation  
Precipitation 0.00 in 0.15 in 3.00 in (1935)
Month to date precipitation 0.47 2.76  
Year to date precipitation 28.18 24.34  
Snow  
Snow 0.00 in 0.00 in - ()
Month to date snowfall 0.0 0.0  
Since 1 June snowfall 0.0 0.0  
Since 1 July snowfall 0.0 0.0  
Snow Depth 0.00 in    
Sea Level Pressure  
Sea Level Pressure 30.08 in    
Wind  
Wind Speed 5 mph (SSW)    
Max Wind Speed 15 mph    
Max Gust Speed 20 mph    
Visibility 9 miles    
Events      
T = Trace of Precipitation, MM = Missing Value Source: NWS Daily Summary

Daily Weather History Graph

Daily Weather History Graph

Search for Another Location

Airport:

Trip Planner

Search our weather history database for the weather conditions in past years. The results will help you decide how hot, cold, wet, or windy it might be!

Date:

Astronomy

Aug. 19, 2013 Rise Set
Actual Time 6:14 AM CDT 7:57 PM CDT
Civil Twilight 5:44 AM CDT 8:27 PM CDT
Nautical Twilight 5:08 AM CDT 9:03 PM CDT
Astronomical Twilight 4:29 AM CDT 9:42 PM CDT
Moon 6:48 PM CDT (8/19) 4:33 AM CDT (8/19)
Length of Visible Light 14h 42m
Length of Day
13h 43m
Waxing Gibbous, 97% of the Moon is Illuminated
Aug 19
Waxing Gibbous
Aug 20
Full
Aug 28
Last Quarter
Sep 5
New
Sep 12
First Quarter

Hourly Weather History & Observations

Time (CDT) Temp. Heat Index Dew Point Humidity Pressure Visibility Wind Dir Wind Speed Gust Speed Precip Events Conditions
12:53 AM 61.0 °F - 57.0 °F 87% 30.11 in 10.0 mi Calm Calm - N/A   Clear
1:53 AM 60.1 °F - 55.9 °F 86% 30.10 in 10.0 mi South 3.5 mph - N/A   Clear
2:53 AM 59.0 °F - 55.9 °F 90% 30.11 in 10.0 mi South 4.6 mph - N/A   Clear
3:53 AM 57.9 °F - 55.9 °F 93% 30.10 in 8.0 mi SSW 3.5 mph - N/A   Clear
4:53 AM 57.9 °F - 57.0 °F 97% 30.10 in 7.0 mi Calm Calm - N/A   Clear
5:53 AM 57.9 °F - 55.9 °F 93% 30.10 in 6.0 mi South 4.6 mph - N/A   Clear
6:53 AM 57.9 °F - 57.0 °F 97% 30.11 in 5.0 mi Calm Calm - N/A   Clear
7:53 AM 63.0 °F - 61.0 °F 93% 30.11 in 5.0 mi SSW 5.8 mph - N/A   Mostly Cloudy
8:53 AM 64.9 °F - 62.1 °F 90% 30.12 in 7.0 mi SSW 8.1 mph - N/A   Partly Cloudy
9:53 AM 69.1 °F - 63.0 °F 81% 30.11 in 9.0 mi SSW 6.9 mph - N/A   Clear
11:53 AM 77.0 °F - 63.0 °F 62% 30.10 in 10.0 mi SW 9.2 mph - N/A   Clear
12:53 PM 79.0 °F - 61.0 °F 54% 30.09 in 10.0 mi SSW 11.5 mph - N/A   Partly Cloudy
1:53 PM 79.0 °F - 61.0 °F 54% 30.08 in 10.0 mi SW 9.2 mph - N/A   Partly Cloudy
2:53 PM 80.1 °F 81.2 °F 62.1 °F 54% 30.06 in 10.0 mi SW 13.8 mph 18.4 mph N/A   Mostly Cloudy
3:53 PM 78.1 °F - 61.0 °F 56% 30.06 in 10.0 mi WSW 11.5 mph - N/A   Partly Cloudy
4:53 PM 75.9 °F - 63.0 °F 64% 30.06 in 10.0 mi WSW 4.6 mph - N/A   Scattered Clouds
5:53 PM 75.0 °F - 64.0 °F 69% 30.05 in 10.0 mi Calm Calm - N/A   Clear
6:53 PM 73.9 °F - 64.9 °F 73% 30.04 in 9.0 mi Calm Calm - N/A   Clear
7:53 PM 72.0 °F - 64.9 °F 78% 30.04 in 8.0 mi Calm Calm - N/A   Clear
8:53 PM 68.0 °F - 63.0 °F 84% 30.04 in 9.0 mi SSE 3.5 mph - N/A   Clear
9:53 PM 66.9 °F - 62.1 °F 84% 30.05 in 9.0 mi Calm Calm - N/A   Clear
10:53 PM 66.0 °F - 61.0 °F 84% 30.04 in 9.0 mi South 3.5 mph - N/A   Clear
11:53 PM 66.0 °F - 61.0 °F 84% 30.03 in 9.0 mi South 3.5 mph - N/A   Clear